AX590 Weather Reports


Display with metric or nautical units.
time (UTC)temp
F
wind
direction
speed
MPH
gust
MPH
rain 1hr
in
rain 24hr
in
rain mn
in
humidity
%
barometer
mb
20260906222019 99 200 2.0 7.0 0.00 0.00 0.00 38 1011.2
20260906221040 100 187 3.0 7.0 0.00 0.00 0.00 39 1011.2
20260906220020 100 198 2.0 6.0 0.00 0.00 0.00 38 1011.2
20260906215016 100 226 1.0 5.0 0.00 0.00 0.00 39 1011.2
20260906214017 100 197 3.0 7.0 0.00 0.00 0.00 40 1011.3
20260906213020 100 201 3.0 8.0 0.00 0.00 0.00 39 1011.5
20260906212020 100 195 2.0 6.0 0.00 0.00 0.00 39 1011.6
20260906211018 100 190 3.0 7.0 0.00 0.00 0.00 39 1011.7
20260906210017 101 192 2.0 8.0 0.00 0.00 0.00 39 1011.9
20260906205018 100 208 2.0 6.0 0.00 0.00 0.00 40 1012.0
20260906204018 100 194 2.0 7.0 0.00 0.00 0.00 39 1012.1
20260906203041 99 227 2.0 6.0 0.00 0.00 0.00 41 1012.2
20260906202018 100 238 2.0 7.0 0.00 0.00 0.00 40 1012.4
20260906201019 100 212 2.0 6.0 0.00 0.00 0.00 40 1012.4
20260906200018 100 198 3.0 7.0 0.00 0.00 0.00 40 1012.6
20260906195039 100 210 2.0 6.0 0.00 0.00 0.00 41 1012.6
20260906194019 100 247 1.0 5.0 0.00 0.00 0.00 42 1012.8
20260906193017 100 209 2.0 7.0 0.00 0.00 0.00 43 1012.9
20260906192019 100 203 2.0 8.0 0.00 0.00 0.00 43 1013.0
20260906191019 100 219 2.0 5.0 0.00 0.00 0.00 43 1013.1
20260906190020 99 222 2.0 9.0 0.00 0.00 0.00 44 1013.1
20260906185017 99 282 2.0 6.0 0.00 0.00 0.00 44 1013.3
20260906184017 99 268 1.0 6.0 0.00 0.00 0.00 44 1013.4
20260906183040 100 254 2.0 7.0 0.00 0.00 0.00 43 1013.5
20260906182020 99 227 1.0 5.0 0.00 0.00 0.00 44 1013.6
20260906181017 99 200 1.0 7.0 0.00 0.00 0.00 45 1013.7
20260906180058 98 206 2.0 7.0 0.00 0.00 0.00 45 1013.8
20260906175018 97 254 1.0 6.0 0.00 0.00 0.00 46 1014.0
20260906174041 97 238 2.0 7.0 0.00 0.00 0.00 45 1014.1
20260906173039 97 212 2.0 6.0 0.00 0.00 0.00 46 1014.3
20260906172019 97 197 2.0 6.0 0.00 0.00 0.00 46 1014.4
20260906171019 97 207 2.0 7.0 0.00 0.00 0.00 47 1014.5
20260906170019 97 224 1.0 4.0 0.00 0.00 0.00 48 1014.6
20260906165019 96 210 2.0 5.0 0.00 0.00 0.00 49 1014.6
20260906164039 96 202 2.0 7.0 0.00 0.00 0.00 50 1014.6
20260906163020 95 226 2.0 6.0 0.00 0.00 0.00 50 1014.5
20260906162019 95 233 1.0 4.0 0.00 0.00 0.00 50 1014.5
20260906161019 94 195 2.0 7.0 0.00 0.00 0.00 52 1014.4
20260906160017 95 202 2.0 6.0 0.00 0.00 0.00 51 1014.4
20260906155040 94 220 1.0 5.0 0.00 0.00 0.00 52 1014.4
20260906154040 94 213 2.0 6.0 0.00 0.00 0.00 54 1014.4
20260906153017 93 252 1.0 5.0 0.00 0.00 0.00 56 1014.3
20260906152017 92 290 1.0 4.0 0.00 0.00 0.00 57 1014.2
20260906151017 91 261 1.0 3.0 0.00 0.00 0.00 60 1014.2
20260906150020 90 280 1.0 4.0 0.00 0.00 0.00 62 1014.1
20260906145018 88 221 1.0 3.0 0.00 0.00 0.00 65 1014.2
20260906144018 86 213 2.0 4.0 0.00 0.00 0.00 69 1014.2
20260906143047 84 218 1.0 2.0 0.00 0.00 0.00 73 1014.3
20260906142047 83 244 1.0 2.0 0.00 0.00 0.00 75 1014.3
20260906141028 82 241 1.0 2.0 0.00 0.00 0.00 77 1014.3
20260906140028 81 215 1.0 3.0 0.00 0.00 0.00 79 1014.2
20260906135027 80 240 1.0 2.0 0.00 0.00 0.00 80 1014.1
20260906134028 79 206 1.0 3.0 0.00 0.00 0.00 82 1014.2
20260906133028 78 322 0.0 1.0 0.00 0.00 0.00 84 1014.2
20260906132028 78 256 0.0 1.0 0.00 0.00 0.00 85 1014.2
20260906131109 77 0.0 0.0 0.00 0.00 0.00 85 1014.2
20260906130028 77 228 0.0 1.0 0.00 0.00 0.00 86 1014.0
20260906125029 77 0.0 0.0 0.00 0.00 0.00 86 1013.9
20260906124029 77 0.0 0.0 0.00 0.00 0.00 85 1013.9
20260906123029 77 0.0 0.0 0.00 0.00 0.00 86 1013.8
20260906122029 77 0.0 0.0 0.00 0.00 0.00 86 1013.8
20260906121029 77 0.0 0.0 0.00 0.00 0.00 86 1013.6
20260906120030 76 0.0 0.0 0.00 0.00 0.00 85 1013.6
20260906115030 77 0.0 0.0 0.00 0.00 0.00 85 1013.5
20260906114030 77 254 0.0 0.0 0.00 0.00 0.00 85 1013.5
20260906113030 77 223 0.0 1.0 0.00 0.00 0.00 85 1013.4
20260906112030 77 0.0 0.0 0.00 0.00 0.00 85 1013.3
20260906111050 77 240 0.0 0.0 0.00 0.00 0.00 85 1013.3
20260906110030 77 265 0.0 0.0 0.00 0.00 0.00 84 1013.2
20260906105031 77 0.0 0.0 0.00 0.00 0.00 84 1013.0
20260906104031 77 0.0 0.0 0.00 0.00 0.00 84 1012.9
20260906103016 77 251 0.0 0.0 0.00 0.00 0.00 83 1013.0
20260906102051 77 0.0 0.0 0.00 0.00 0.00 83 1013.0
20260906101052 78 220 0.0 1.0 0.00 0.00 0.00 82 1012.9
20260906100031 78 0.0 0.0 0.00 0.00 0.00 82 1012.9
20260906095032 78 0.0 0.0 0.00 0.00 0.00 81 1012.8
20260906094017 79 0.0 0.0 0.00 0.00 0.00 80 1012.8
20260906093017 79 221 0.0 1.0 0.00 0.00 0.00 80 1012.6
20260906092038 79 203 0.0 2.0 0.00 0.00 0.00 80 1012.6
20260906091018 79 201 0.0 1.0 0.00 0.00 0.00 79 1012.5
20260906090018 80 215 0.0 2.0 0.00 0.00 0.00 78 1012.5
20260906085019 80 197 1.0 3.0 0.00 0.00 0.00 78 1012.4
20260906084019 80 205 0.0 2.0 0.00 0.00 0.00 77 1012.3
20260906083019 80 208 0.0 2.0 0.00 0.00 0.00 76 1012.2
20260906082019 80 219 1.0 3.0 0.00 0.00 0.00 76 1012.2
20260906081057 81 212 1.0 3.0 0.00 0.00 0.00 75 1012.3
20260906080036 81 210 1.0 3.0 0.00 0.00 0.00 75 1012.4
20260906075019 81 190 0.0 3.0 0.00 0.00 0.00 74 1012.3
20260906074040 81 217 1.0 2.0 0.00 0.00 0.00 73 1012.3
20260906073040 81 232 0.0 2.0 0.00 0.00 0.00 73 1012.4
20260906072017 82 228 1.0 3.0 0.00 0.00 0.00 72 1012.5
20260906071018 82 227 1.0 3.0 0.00 0.00 0.00 71 1012.7
20260906070018 82 214 1.0 3.0 0.00 0.00 0.00 71 1012.8
20260906065020 82 228 1.0 2.0 0.00 0.00 0.00 71 1012.8
20260906064038 82 223 1.0 3.0 0.00 0.00 0.00 70 1012.8
20260906063018 83 205 1.0 4.0 0.00 0.00 0.00 70 1012.7
20260906062039 83 214 1.0 3.0 0.00 0.00 0.00 70 1012.6
20260906061018 83 233 1.0 3.0 0.00 0.00 0.00 70 1012.6
20260906060019 83 220 1.0 3.0 0.00 0.00 0.00 69 1012.7
20260906055019 83 219 1.0 3.0 0.00 0.00 0.00 69 1012.7
20260906054019 83 238 1.0 3.0 0.00 0.00 0.00 69 1012.7
20260906053019 84 214 0.0 2.0 0.00 0.00 0.00 68 1012.7
20260906052037 85 233 1.0 2.0 0.00 0.00 0.00 67 1012.7
20260906051017 85 208 1.0 3.0 0.00 0.00 0.00 66 1012.8
20260906050019 85 193 1.0 4.0 0.00 0.00 0.00 65 1012.8
20260906045040 85 184 3.0 6.0 0.00 0.00 0.00 65 1012.7
20260906044017 85 188 2.0 5.0 0.00 0.00 0.00 66 1012.7
20260906043017 85 207 2.0 5.0 0.00 0.00 0.00 65 1012.7
20260906042018 85 201 2.0 4.0 0.00 0.00 0.00 65 1012.7
20260906041021 86 189 2.0 5.0 0.00 0.00 0.00 64 1012.7
20260906040018 86 200 1.0 4.0 0.00 0.00 0.00 64 1012.7
20260906035038 86 205 1.0 3.0 0.00 0.00 0.00 63 1012.7
20260906034019 86 197 2.0 5.0 0.00 0.00 0.00 62 1012.6
20260906033018 87 199 2.0 5.0 0.00 0.00 0.00 62 1012.6
20260906032019 87 189 3.0 7.0 0.00 0.00 0.00 61 1012.7
20260906031019 87 199 2.0 4.0 0.00 0.00 0.00 61 1012.7
20260906030019 87 193 3.0 6.0 0.00 0.00 0.00 61 1012.7
20260906025019 87 199 3.0 5.0 0.00 0.00 0.00 61 1012.5
20260906024019 87 204 2.0 6.0 0.00 0.00 0.00 60 1012.4
20260906023020 88 195 3.0 5.0 0.00 0.00 0.00 60 1012.2
20260906022040 88 201 3.0 6.0 0.00 0.00 0.00 58 1012.1
20260906021019 89 201 3.0 6.0 0.00 0.00 0.00 57 1012.0
20260906020017 90 198 3.0 8.0 0.00 0.00 0.00 56 1012.0
20260906015017 91 200 3.0 7.0 0.00 0.00 0.00 54 1011.8
20260906014038 91 194 3.0 7.0 0.00 0.00 0.00 53 1011.7
20260906013020 92 200 3.0 8.0 0.00 0.00 0.00 51 1011.5
20260906012018 92 202 2.0 5.0 0.00 0.00 0.00 47 1011.3
20260906011018 93 232 1.0 3.0 0.00 0.00 0.00 47 1011.1
20260906010017 93 224 1.0 3.0 0.00 0.00 0.00 46 1011.0
20260906005018 94 234 1.0 2.0 0.00 0.00 0.00 46 1011.0
20260906004018 94 234 1.0 3.0 0.00 0.00 0.00 45 1011.0
20260906003018 94 235 1.0 3.0 0.00 0.00 0.00 44 1011.0
20260906002019 95 223 1.0 5.0 0.00 0.00 0.00 43 1011.0
20260906001019 95 229 1.0 4.0 0.00 0.00 0.00 42 1011.0
20260906000019 95 213 1.0 3.0 0.00 0.00 0.00 43 1010.9
20260905235019 96 209 1.0 6.0 0.00 0.00 0.00 42 1010.8
20260905234019 96 200 2.0 6.0 0.00 0.00 0.00 41 1010.8
20260905233020 96 212 1.0 4.0 0.00 0.00 0.00 41 1010.8
20260905232019 97 266 1.0 5.0 0.00 0.00 0.00 40 1010.8
20260905231017 97 210 1.0 5.0 0.00 0.00 0.00 40 1010.9
20260905230057 97 258 1.0 3.0 0.00 0.00 0.00 39 1010.8
20260905225020 98 212 2.0 4.0 0.00 0.00 0.00 38 1010.8
20260905224020 99 200 1.0 5.0 0.00 0.00 0.00 39 1010.7
20260905223017 100 190 1.0 4.0 0.00 0.00 0.00 38 1010.7